{"data":{"norad_id":49096,"epoch":"2026-05-25T03:15:28.552896Z","epoch_age_seconds":59818,"freshness":"FRESH","line1":"1 49096U 21075X   26145.13574714 -.00000173  00000+0 -51564-3 0  9999","line2":"2 49096  87.8951 355.2662 0001752  86.2065 273.9264 13.12441333232161","mean_motion":13.12441333,"eccentricity":0.0001752,"inclination_deg":87.8951,"raan_deg":355.2662,"arg_perigee_deg":86.2065,"mean_anomaly_deg":273.9264,"bstar":-0.00051564,"rev_number":23216,"period_min":109.71919001579,"perigee_km":1212.3996245415,"apogee_km":1215.0598146401,"semimajor_km":7591.8667195908,"source":"CELESTRAK","updated_at":"2026-05-25T13:38:22.485370Z"}}